2023/10/25 00:00:00, 0.9,11.2
2023/10/25 00:10:00, 1.0,11.3
2023/10/25 00:20:00, 1.0,11.6
2023/10/25 00:30:00, 1.0,11.5
2023/10/25 00:40:00, 1.1,11.8
2023/10/25 00:50:00, 1.1,11.7
2023/10/25 01:00:00, 1.0,11.5
2023/10/25 01:10:00, 1.1,11.5
2023/10/25 01:20:00, 1.1,11.5
2023/10/25 01:30:00, 1.1,11.4
2023/10/25 01:40:00, 1.1,11.3
2023/10/25 01:50:00, 1.1,11.4
2023/10/25 02:00:00, 1.3,11.6
2023/10/25 02:10:00,57.9,11.6
2023/10/25 02:20:00,25.7,11.6
2023/10/25 02:30:00, 1.5,11.8
2023/10/25 02:40:00, 1.3,11.7
2023/10/25 02:50:00, 1.3,11.7
2023/10/25 03:00:00, 1.3,11.7
2023/10/25 03:10:00, 1.1,11.3
2023/10/25 03:20:00, 1.1,11.2
2023/10/25 03:30:00, 1.2,11.0
2023/10/25 03:40:00, 1.2,11.0
2023/10/25 03:50:00, 1.2,10.8
2023/10/25 04:00:00, 1.3,10.8
2023/10/25 04:10:00, 1.5,10.9
2023/10/25 04:20:00, 1.3,10.8
2023/10/25 04:30:00, 1.3,10.2
2023/10/25 04:40:00, 1.4,10.4
2023/10/25 04:50:00,41.8,10.3
2023/10/25 05:00:00,---,10.3
2023/10/25 05:10:00,---,10.3
2023/10/25 05:20:00,82.2,10.0
2023/10/25 05:30:00,82.2, 9.9
2023/10/25 05:40:00,82.3,10.1
2023/10/25 05:50:00,82.2, 9.9
2023/10/25 06:00:00,82.1, 9.7
2023/10/25 06:10:00,82.2, 9.8
2023/10/25 06:20:00,82.2, 9.7
2023/10/25 06:30:00,82.4, 9.5
2023/10/25 06:40:00,82.3, 9.7
2023/10/25 06:50:00,33.9, 9.5
2023/10/25 07:00:00,57.8, 9.7
2023/10/25 07:10:00,25.4, 9.7
2023/10/25 07:20:00,25.1,10.1
2023/10/25 07:30:00, 0.5,11.5
2023/10/25 07:40:00, 0.0,12.3
2023/10/25 07:50:00,---,13.3
2023/10/25 08:00:00, 0.0,13.6
2023/10/25 08:10:00,---,13.5
2023/10/25 08:20:00,---,14.1
2023/10/25 08:30:00,---,14.2
2023/10/25 08:40:00,---,15.1
2023/10/25 08:50:00,---,17.0
2023/10/25 09:00:00,---,18.5
2023/10/25 09:10:00,---,19.9
2023/10/25 09:20:00,---,20.6
2023/10/25 09:30:00, 0.0,22.3
2023/10/25 09:40:00, 0.0,23.4
2023/10/25 09:50:00, 0.0,23.1
2023/10/25 10:00:00, 0.0,24.5
2023/10/25 10:10:00, 0.0,26.0
2023/10/25 10:20:00, 0.0,25.8
2023/10/25 10:30:00, 0.0,24.2
2023/10/25 10:40:00, 0.0,24.8
2023/10/25 10:50:00, 0.0,24.3
2023/10/25 11:00:00, 0.0,23.6
2023/10/25 11:10:00, 0.0,24.8
2023/10/25 11:20:00, 0.0,23.5
2023/10/25 11:30:00, 0.0,23.6
2023/10/25 11:40:00, 0.0,24.6
2023/10/25 11:50:00, 0.0,23.8
2023/10/25 12:00:00, 0.0,24.0
2023/10/25 12:10:00, 0.1,22.0
2023/10/25 12:20:00, 0.1,21.9
2023/10/25 12:30:00, 0.1,22.5
2023/10/25 12:40:00, 0.1,21.4
2023/10/25 12:50:00, 0.0,22.6
2023/10/25 13:00:00, 0.0,23.8
2023/10/25 13:10:00, 0.1,23.4
2023/10/25 13:20:00, 0.2,21.0
2023/10/25 13:30:00, 0.0,24.1
2023/10/25 13:40:00, 0.1,23.0
2023/10/25 13:50:00, 0.0,25.7
2023/10/25 14:00:00, 0.0,26.0
2023/10/25 14:10:00, 0.0,24.2
2023/10/25 14:20:00, 0.1,21.2
2023/10/25 14:30:00, 0.3,19.2
2023/10/25 14:40:00, 0.2,19.0
2023/10/25 14:50:00, 0.2,20.2
2023/10/25 15:00:00, 0.2,20.6
2023/10/25 15:10:00, 0.2,19.6
2023/10/25 15:20:00, 0.3,18.8
2023/10/25 15:30:00, 0.3,18.0
2023/10/25 15:40:00, 0.3,17.4
2023/10/25 15:50:00, 0.3,17.4
2023/10/25 16:00:00, 0.4,17.2
2023/10/25 16:10:00, 0.4,16.9
2023/10/25 16:20:00, 0.5,16.5
2023/10/25 16:30:00, 0.6,16.5
2023/10/25 16:40:00, 0.7,16.4
2023/10/25 16:50:00, 0.6,16.1
2023/10/25 17:00:00, 0.6,15.7
2023/10/25 17:10:00, 0.7,15.5
2023/10/25 17:20:00, 0.8,15.0
2023/10/25 17:30:00, 0.9,14.4
2023/10/25 17:40:00, 1.1,14.8
2023/10/25 17:50:00, 1.0,14.8
2023/10/25 18:00:00, 0.9,14.3
2023/10/25 18:10:00, 1.0,14.2
2023/10/25 18:20:00, 1.1,14.3
2023/10/25 18:30:00, 0.9,13.8
2023/10/25 18:40:00, 0.9,13.7
2023/10/25 18:50:00, 1.0,13.6
2023/10/25 19:00:00, 1.2,13.6
2023/10/25 19:10:00, 1.0,13.3
2023/10/25 19:20:00, 1.0,13.2
2023/10/25 19:30:00, 1.0,13.0
2023/10/25 19:40:00, 1.1,13.2
2023/10/25 19:50:00, 1.1,13.3
2023/10/25 20:00:00, 1.1,13.1
2023/10/25 20:10:00, 1.0,12.8
2023/10/25 20:20:00, 1.1,12.5
2023/10/25 20:30:00, 1.1,12.3
2023/10/25 20:40:00, 1.2,12.4
2023/10/25 20:50:00, 1.3,12.3
2023/10/25 21:00:00, 1.2,12.4
2023/10/25 21:10:00, 1.2,12.2
2023/10/25 21:20:00, 1.3,12.3
2023/10/25 21:30:00, 1.3,12.5
2023/10/25 21:40:00, 1.2,12.6
2023/10/25 21:50:00, 1.3,12.5
2023/10/25 22:00:00, 1.3,12.3
2023/10/25 22:10:00, 1.3,12.3
2023/10/25 22:20:00,33.5,12.2
2023/10/25 22:30:00, 1.3,12.1
2023/10/25 22:40:00, 1.3,12.2
2023/10/25 22:50:00, 1.0,11.8
2023/10/25 23:00:00, 1.0,11.8
2023/10/25 23:10:00, 1.0,11.7
2023/10/25 23:20:00, 1.1,11.3
2023/10/25 23:30:00, 1.1,11.4
2023/10/25 23:40:00, 1.1,11.0
2023/10/25 23:50:00, 1.0,10.9
